#datetime,building,power
2023-12-16T00:00:00,pth,3.60
2023-12-16T00:02:00,pth,2.40
2023-12-16T00:03:00,pth,1.20
2023-12-16T00:05:00,pth,3.60
2023-12-16T00:07:00,pth,2.40
2023-12-16T00:09:00,pth,3.60
2023-12-16T00:10:00,pth,1.20
2023-12-16T00:12:00,pth,3.60
2023-12-16T00:14:00,pth,3.60
2023-12-16T00:16:00,pth,3.60
2023-12-16T00:17:00,pth,1.20
2023-12-16T00:19:00,pth,3.60
2023-12-16T00:21:00,pth,2.40
2023-12-16T00:22:00,pth,2.40
2023-12-16T00:24:00,pth,2.40
2023-12-16T00:25:00,pth,1.20
2023-12-16T00:27:00,pth,2.40
2023-12-16T00:28:00,pth,1.20
2023-12-16T00:29:00,pth,1.20
2023-12-16T00:31:00,pth,3.60
2023-12-16T00:33:00,pth,3.60
2023-12-16T00:35:00,pth,2.40
2023-12-16T00:36:00,pth,1.20
2023-12-16T00:38:00,pth,3.60
2023-12-16T00:39:00,pth,1.20
2023-12-16T00:41:00,pth,2.40
2023-12-16T00:43:00,pth,2.40
2023-12-16T00:45:00,pth,2.40
2023-12-16T00:46:00,pth,1.20
2023-12-16T00:48:00,pth,3.60
2023-12-16T00:50:00,pth,2.40
2023-12-16T00:51:00,pth,1.20
2023-12-16T00:53:00,pth,2.40
2023-12-16T00:54:00,pth,1.20
2023-12-16T00:56:00,pth,2.40
2023-12-16T00:57:00,pth,1.20
2023-12-16T00:58:00,pth,1.20
2023-12-16T01:00:00,pth,2.40
2023-12-16T01:01:00,pth,1.20
2023-12-16T01:03:00,pth,2.40
2023-12-16T01:04:00,pth,1.20
2023-12-16T01:06:00,pth,2.40
2023-12-16T01:07:00,pth,2.40
2023-12-16T01:09:00,pth,2.40
2023-12-16T01:11:00,pth,2.40
2023-12-16T01:13:00,pth,2.40
2023-12-16T01:15:00,pth,2.40
2023-12-16T01:17:00,pth,2.40
2023-12-16T01:19:00,pth,4.80
2023-12-16T01:20:00,pth,2.40
2023-12-16T01:22:00,pth,2.40
2023-12-16T01:24:00,pth,2.40
2023-12-16T01:26:00,pth,2.40
2023-12-16T01:28:00,pth,2.40
2023-12-16T01:30:00,pth,2.40
2023-12-16T01:32:00,pth,2.40
2023-12-16T01:33:00,pth,1.20
2023-12-16T01:35:00,pth,2.40
2023-12-16T01:37:00,pth,2.40
2023-12-16T01:39:00,pth,2.40
2023-12-16T01:40:00,pth,1.20
2023-12-16T01:41:00,pth,1.20
2023-12-16T01:43:00,pth,3.60
2023-12-16T01:44:00,pth,1.20
2023-12-16T01:45:00,pth,1.20
2023-12-16T01:47:00,pth,2.40
2023-12-16T01:49:00,pth,1.20
2023-12-16T01:51:00,pth,2.40
2023-12-16T01:53:00,pth,2.40
2023-12-16T01:55:00,pth,1.20
2023-12-16T01:57:00,pth,2.40
2023-12-16T01:58:00,pth,1.20
2023-12-16T02:00:00,pth,2.40
2023-12-16T02:01:00,pth,1.20
2023-12-16T02:02:00,pth,1.20
2023-12-16T02:04:00,pth,1.20
2023-12-16T02:05:00,pth,1.20
2023-12-16T02:07:00,pth,2.40
2023-12-16T02:08:00,pth,1.20
2023-12-16T02:09:00,pth,1.20
2023-12-16T02:11:00,pth,2.40
2023-12-16T02:12:00,pth,1.20
2023-12-16T02:14:00,pth,2.40
2023-12-16T02:16:00,pth,2.40
2023-12-16T02:18:00,pth,2.40
2023-12-16T02:19:00,pth,1.20
2023-12-16T02:21:00,pth,1.20
2023-12-16T02:23:00,pth,2.40
2023-12-16T02:25:00,pth,2.40
2023-12-16T02:27:00,pth,2.40
2023-12-16T02:28:00,pth,1.20
2023-12-16T02:30:00,pth,1.20
2023-12-16T02:31:00,pth,1.20
2023-12-16T02:33:00,pth,2.40
2023-12-16T02:34:00,pth,1.20
2023-12-16T02:36:00,pth,2.40
2023-12-16T02:38:00,pth,1.20
2023-12-16T02:40:00,pth,2.40
2023-12-16T02:41:00,pth,1.20
2023-12-16T02:42:00,pth,1.20
2023-12-16T02:44:00,pth,2.40
2023-12-16T02:45:00,pth,2.40
2023-12-16T02:47:00,pth,2.40
2023-12-16T02:48:00,pth,1.20
2023-12-16T02:51:00,pth,2.40
2023-12-16T02:53:00,pth,2.40
2023-12-16T02:54:00,pth,1.20
2023-12-16T02:56:00,pth,2.40
2023-12-16T02:58:00,pth,2.40
2023-12-16T03:00:00,pth,2.40
2023-12-16T03:02:00,pth,2.40
2023-12-16T03:04:00,pth,2.40
2023-12-16T03:06:00,pth,2.40
2023-12-16T03:07:00,pth,1.20
2023-12-16T03:09:00,pth,2.40
2023-12-16T03:10:00,pth,1.20
2023-12-16T03:12:00,pth,1.20
2023-12-16T03:14:00,pth,2.40
2023-12-16T03:16:00,pth,2.40
2023-12-16T03:18:00,pth,2.40
2023-12-16T03:20:00,pth,2.40
2023-12-16T03:21:00,pth,1.20
2023-12-16T03:23:00,pth,2.40
2023-12-16T03:24:00,pth,1.20
2023-12-16T03:26:00,pth,1.20
2023-12-16T03:28:00,pth,2.40
2023-12-16T03:30:00,pth,2.40
2023-12-16T03:31:00,pth,1.20
2023-12-16T03:33:00,pth,2.40
2023-12-16T03:35:00,pth,1.20
2023-12-16T03:37:00,pth,2.40
2023-12-16T03:39:00,pth,2.40
2023-12-16T03:40:00,pth,1.20
2023-12-16T03:42:00,pth,2.40
2023-12-16T03:44:00,pth,2.40
2023-12-16T03:45:00,pth,1.20
2023-12-16T03:46:00,pth,1.20
2023-12-16T03:48:00,pth,2.40
2023-12-16T03:50:00,pth,1.20
2023-12-16T03:51:00,pth,1.20
2023-12-16T03:52:00,pth,1.20
2023-12-16T03:54:00,pth,2.40
2023-12-16T03:57:00,pth,2.40
2023-12-16T03:59:00,pth,1.20
2023-12-16T04:00:00,pth,1.20
2023-12-16T04:02:00,pth,2.40
2023-12-16T04:03:00,pth,1.20
2023-12-16T04:05:00,pth,1.20
2023-12-16T04:06:00,pth,1.20
2023-12-16T04:08:00,pth,2.40
2023-12-16T04:10:00,pth,2.40
2023-12-16T04:12:00,pth,1.20
2023-12-16T04:13:00,pth,1.20
2023-12-16T04:15:00,pth,2.40
2023-12-16T04:17:00,pth,1.20
2023-12-16T04:19:00,pth,2.40
2023-12-16T04:20:00,pth,1.20
2023-12-16T04:22:00,pth,1.20
2023-12-16T04:24:00,pth,2.40
2023-12-16T04:25:00,pth,1.20
2023-12-16T04:28:00,pth,2.40
2023-12-16T04:30:00,pth,2.40
2023-12-16T04:32:00,pth,1.20
2023-12-16T04:34:00,pth,2.40
2023-12-16T04:36:00,pth,1.20
2023-12-16T04:38:00,pth,2.40
2023-12-16T04:40:00,pth,1.20
2023-12-16T04:41:00,pth,1.20
2023-12-16T04:43:00,pth,2.40
2023-12-16T04:45:00,pth,1.20
2023-12-16T04:46:00,pth,1.20
2023-12-16T04:47:00,pth,1.20
2023-12-16T04:49:00,pth,1.20
2023-12-16T04:51:00,pth,2.40
2023-12-16T04:53:00,pth,2.40
2023-12-16T04:55:00,pth,1.20
2023-12-16T04:57:00,pth,2.40
2023-12-16T04:59:00,pth,1.20
2023-12-16T05:01:00,pth,2.40
2023-12-16T05:03:00,pth,1.20
2023-12-16T05:05:00,pth,2.40
2023-12-16T05:07:00,pth,2.40
2023-12-16T05:10:00,pth,2.40
2023-12-16T05:12:00,pth,2.40
2023-12-16T05:14:00,pth,2.40
2023-12-16T05:16:00,pth,2.40
2023-12-16T05:19:00,pth,2.40
2023-12-16T05:20:00,pth,1.20
2023-12-16T05:22:00,pth,1.20
2023-12-16T05:25:00,pth,3.60
2023-12-16T05:27:00,pth,1.20
2023-12-16T05:28:00,pth,1.20
2023-12-16T05:30:00,pth,2.40
2023-12-16T05:31:00,pth,1.20
2023-12-16T05:33:00,pth,2.40
2023-12-16T05:35:00,pth,2.40
2023-12-16T05:37:00,pth,1.20
2023-12-16T05:39:00,pth,2.40
2023-12-16T05:41:00,pth,2.40
2023-12-16T05:43:00,pth,2.40
2023-12-16T05:45:00,pth,2.40
2023-12-16T05:47:00,pth,2.40
2023-12-16T05:49:00,pth,1.20
2023-12-16T05:51:00,pth,2.40
2023-12-16T05:53:00,pth,1.20
2023-12-16T05:55:00,pth,2.40
2023-12-16T05:56:00,pth,1.20
2023-12-16T05:58:00,pth,1.20
2023-12-16T05:59:00,pth,1.20
2023-12-16T06:01:00,pth,2.40
2023-12-16T06:03:00,pth,2.40
2023-12-16T06:05:00,pth,1.20
2023-12-16T06:07:00,pth,2.40
2023-12-16T06:08:00,pth,1.20
2023-12-16T06:10:00,pth,2.40
2023-12-16T06:12:00,pth,1.20
2023-12-16T06:14:00,pth,2.40
2023-12-16T06:16:00,pth,2.40
2023-12-16T06:18:00,pth,1.20
2023-12-16T06:20:00,pth,2.40
2023-12-16T06:22:00,pth,2.40
2023-12-16T06:24:00,pth,2.40
2023-12-16T06:26:00,pth,1.20
2023-12-16T06:28:00,pth,2.40
2023-12-16T06:30:00,pth,1.20
2023-12-16T06:31:00,pth,1.20
2023-12-16T06:32:00,pth,1.20
2023-12-16T06:34:00,pth,2.40
2023-12-16T06:36:00,pth,2.40
2023-12-16T06:38:00,pth,2.40
2023-12-16T06:40:00,pth,3.60
2023-12-16T06:41:00,pth,1.20
2023-12-16T06:42:00,pth,1.20
2023-12-16T06:44:00,pth,2.40
2023-12-16T06:45:00,pth,1.20
2023-12-16T06:47:00,pth,1.20
2023-12-16T06:49:00,pth,2.40
2023-12-16T06:51:00,pth,2.40
2023-12-16T06:53:00,pth,2.40
2023-12-16T06:55:00,pth,2.40
2023-12-16T06:57:00,pth,2.40
2023-12-16T06:59:00,pth,2.40
2023-12-16T07:01:00,pth,1.20
2023-12-16T07:03:00,pth,2.40
2023-12-16T07:05:00,pth,2.40
2023-12-16T07:07:00,pth,2.40
2023-12-16T07:09:00,pth,2.40
2023-12-16T07:11:00,pth,2.40
2023-12-16T07:13:00,pth,2.40
2023-12-16T07:15:00,pth,2.40
2023-12-16T07:17:00,pth,2.40
2023-12-16T07:19:00,pth,1.20
2023-12-16T07:21:00,pth,2.40
2023-12-16T07:22:00,pth,1.20
2023-12-16T07:24:00,pth,2.40
2023-12-16T07:26:00,pth,2.40
2023-12-16T07:29:00,pth,2.40
2023-12-16T07:30:00,pth,1.20
2023-12-16T07:32:00,pth,2.40
2023-12-16T07:34:00,pth,2.40
2023-12-16T07:36:00,pth,1.20
2023-12-16T07:38:00,pth,2.40
2023-12-16T07:39:00,pth,1.20
2023-12-16T07:41:00,pth,2.40
2023-12-16T07:43:00,pth,3.60
2023-12-16T07:45:00,pth,3.60
2023-12-16T07:46:00,pth,1.20
2023-12-16T07:49:00,pth,1.20
2023-12-16T07:51:00,pth,2.40
2023-12-16T07:53:00,pth,1.20
2023-12-16T07:56:00,pth,2.40
2023-12-16T07:59:00,pth,1.20
2023-12-16T08:00:00,pth,1.20
2023-12-16T08:03:00,pth,1.20
2023-12-16T08:05:00,pth,1.20
2023-12-16T08:06:00,pth,1.20
2023-12-16T08:07:00,pth,1.20
2023-12-16T08:08:00,pth,1.20
2023-12-16T08:09:00,pth,1.20
2023-12-16T08:11:00,pth,1.20
2023-12-16T08:13:00,pth,1.20
2023-12-16T08:14:00,pth,1.20
2023-12-16T08:16:00,pth,3.60
2023-12-16T08:18:00,pth,2.40
2023-12-16T08:19:00,pth,1.20
2023-12-16T08:21:00,pth,2.40
2023-12-16T08:23:00,pth,2.40
2023-12-16T08:25:00,pth,1.20
2023-12-16T08:27:00,pth,4.80
2023-12-16T08:28:00,pth,2.40
2023-12-16T08:29:00,pth,1.20
2023-12-16T08:31:00,pth,1.20
2023-12-16T08:32:00,pth,1.20
2023-12-16T08:34:00,pth,2.40
2023-12-16T08:35:00,pth,1.20
2023-12-16T08:37:00,pth,2.40
2023-12-16T08:38:00,pth,1.20
2023-12-16T08:40:00,pth,1.20
2023-12-16T08:42:00,pth,2.40
2023-12-16T08:44:00,pth,2.40
2023-12-16T08:45:00,pth,2.40
2023-12-16T08:47:00,pth,2.40
2023-12-16T08:49:00,pth,1.20
2023-12-16T08:51:00,pth,2.40
2023-12-16T08:52:00,pth,1.20
2023-12-16T08:53:00,pth,1.20
2023-12-16T08:55:00,pth,2.40
2023-12-16T08:58:00,pth,2.40
2023-12-16T09:00:00,pth,10.80
2023-12-16T09:01:00,pth,7.20
2023-12-16T09:04:00,pth,13.20
2023-12-16T09:05:00,pth,13.20
2023-12-16T09:06:00,pth,7.20
2023-12-16T09:07:00,pth,7.20
2023-12-16T09:08:00,pth,6.00
2023-12-16T09:10:00,pth,13.20
2023-12-16T09:12:00,pth,13.20
2023-12-16T09:13:00,pth,7.20
2023-12-16T09:15:00,pth,13.20
2023-12-16T09:16:00,pth,7.20
2023-12-16T09:17:00,pth,6.00
2023-12-16T09:19:00,pth,14.40
2023-12-16T09:20:00,pth,6.00
2023-12-16T09:22:00,pth,13.20
2023-12-16T09:23:00,pth,7.20
2023-12-16T09:24:00,pth,6.00
2023-12-16T09:26:00,pth,13.20
2023-12-16T09:28:00,pth,13.20
2023-12-16T09:29:00,pth,7.20
2023-12-16T09:31:00,pth,13.20
2023-12-16T09:32:00,pth,7.20
2023-12-16T09:34:00,pth,13.20
2023-12-16T09:36:00,pth,13.20
2023-12-16T09:38:00,pth,13.20
2023-12-16T09:39:00,pth,6.00
2023-12-16T09:40:00,pth,7.20
2023-12-16T09:42:00,pth,13.20
2023-12-16T09:43:00,pth,6.00
2023-12-16T09:45:00,pth,13.20
2023-12-16T09:47:00,pth,10.80
2023-12-16T09:49:00,pth,4.80
2023-12-16T09:51:00,pth,13.20
2023-12-16T09:52:00,pth,6.00
2023-12-16T09:53:00,pth,7.20
2023-12-16T09:54:00,pth,6.00
2023-12-16T09:56:00,pth,3.60
2023-12-16T09:58:00,pth,7.20
2023-12-16T10:00:00,pth,1.20
2023-12-16T10:02:00,pth,1.20
2023-12-16T10:04:00,pth,2.40
2023-12-16T10:06:00,pth,1.20
2023-12-16T10:07:00,pth,1.20
2023-12-16T10:10:00,pth,1.20
2023-12-16T10:12:00,pth,2.40
2023-12-16T10:14:00,pth,1.20
2023-12-16T10:16:00,pth,2.40
2023-12-16T10:19:00,pth,2.40
2023-12-16T10:21:00,pth,1.20
2023-12-16T10:23:00,pth,1.20
2023-12-16T10:25:00,pth,1.20
2023-12-16T10:26:00,pth,1.20
2023-12-16T10:28:00,pth,1.20
2023-12-16T10:29:00,pth,1.20
2023-12-16T10:30:00,pth,1.20
2023-12-16T10:33:00,pth,1.20
2023-12-16T10:35:00,pth,2.40
2023-12-16T10:37:00,pth,1.20
2023-12-16T10:40:00,pth,2.40
2023-12-16T10:42:00,pth,1.20
2023-12-16T10:45:00,pth,2.40
2023-12-16T10:46:00,pth,1.20
2023-12-16T10:47:00,pth,1.20
2023-12-16T10:49:00,pth,1.20
2023-12-16T10:50:00,pth,1.20
2023-12-16T10:52:00,pth,1.20
2023-12-16T10:53:00,pth,1.20
2023-12-16T10:55:00,pth,2.40
2023-12-16T10:56:00,pth,1.20
2023-12-16T10:58:00,pth,1.20
2023-12-16T11:00:00,pth,1.20
2023-12-16T11:01:00,pth,1.20
2023-12-16T11:03:00,pth,1.20
2023-12-16T11:05:00,pth,2.40
2023-12-16T11:07:00,pth,1.20
2023-12-16T11:09:00,pth,1.20
2023-12-16T11:10:00,pth,1.20
2023-12-16T11:12:00,pth,1.20
2023-12-16T11:13:00,pth,1.20
2023-12-16T11:15:00,pth,1.20
2023-12-16T11:17:00,pth,2.40
2023-12-16T11:18:00,pth,1.20
2023-12-16T11:20:00,pth,2.40
2023-12-16T11:22:00,pth,1.20
2023-12-16T11:24:00,pth,2.40
2023-12-16T11:26:00,pth,3.60
2023-12-16T11:27:00,pth,1.20
2023-12-16T11:29:00,pth,1.20
2023-12-16T11:30:00,pth,1.20
2023-12-16T11:32:00,pth,1.20
2023-12-16T11:33:00,pth,1.20
2023-12-16T11:34:00,pth,1.20
2023-12-16T11:36:00,pth,1.20
2023-12-16T11:37:00,pth,1.20
2023-12-16T11:39:00,pth,1.20
2023-12-16T11:41:00,pth,2.40
2023-12-16T11:43:00,pth,1.20
2023-12-16T11:44:00,pth,1.20
2023-12-16T11:46:00,pth,2.40
2023-12-16T11:48:00,pth,2.40
2023-12-16T11:50:00,pth,1.20
2023-12-16T11:52:00,pth,2.40
2023-12-16T11:54:00,pth,1.20
2023-12-16T11:56:00,pth,2.40
2023-12-16T11:58:00,pth,1.20
2023-12-16T11:59:00,pth,1.20
2023-12-16T12:01:00,pth,1.20
2023-12-16T12:03:00,pth,2.40
2023-12-16T12:06:00,pth,2.40
2023-12-16T12:09:00,pth,1.20
2023-12-16T12:11:00,pth,2.40
2023-12-16T12:12:00,pth,1.20
2023-12-16T12:14:00,pth,1.20
2023-12-16T12:16:00,pth,2.40
2023-12-16T12:18:00,pth,1.20
2023-12-16T12:19:00,pth,1.20
2023-12-16T12:21:00,pth,1.20
2023-12-16T12:23:00,pth,2.40
2023-12-16T12:25:00,pth,1.20
2023-12-16T12:28:00,pth,2.40
2023-12-16T12:31:00,pth,2.40
2023-12-16T12:33:00,pth,1.20
2023-12-16T12:34:00,pth,1.20
2023-12-16T12:36:00,pth,1.20
2023-12-16T12:37:00,pth,1.20
2023-12-16T12:39:00,pth,1.20
2023-12-16T12:40:00,pth,1.20
2023-12-16T12:42:00,pth,2.40
2023-12-16T12:43:00,pth,1.20
2023-12-16T12:45:00,pth,2.40
2023-12-16T12:46:00,pth,1.20
2023-12-16T12:48:00,pth,3.60
2023-12-16T12:50:00,pth,3.60
2023-12-16T12:52:00,pth,2.40
2023-12-16T12:53:00,pth,1.20
2023-12-16T12:54:00,pth,2.40
2023-12-16T12:56:00,pth,2.40
2023-12-16T12:58:00,pth,3.60
2023-12-16T13:00:00,pth,1.20
2023-12-16T13:02:00,pth,1.20
2023-12-16T13:03:00,pth,1.20
2023-12-16T13:04:00,pth,1.20
2023-12-16T13:06:00,pth,1.20
2023-12-16T13:08:00,pth,1.20
2023-12-16T13:10:00,pth,1.20
2023-12-16T13:11:00,pth,1.20
2023-12-16T13:13:00,pth,1.20
2023-12-16T13:15:00,pth,2.40
2023-12-16T13:18:00,pth,2.40
2023-12-16T13:20:00,pth,1.20
2023-12-16T13:22:00,pth,1.20
2023-12-16T13:23:00,pth,1.20
2023-12-16T13:25:00,pth,1.20
2023-12-16T13:27:00,pth,1.20
2023-12-16T13:29:00,pth,1.20
2023-12-16T13:31:00,pth,1.20
2023-12-16T13:33:00,pth,2.40
2023-12-16T13:35:00,pth,1.20
2023-12-16T13:37:00,pth,1.20
2023-12-16T13:38:00,pth,1.20
2023-12-16T13:40:00,pth,1.20
2023-12-16T13:42:00,pth,2.40
2023-12-16T13:43:00,pth,1.20
2023-12-16T13:45:00,pth,1.20
2023-12-16T13:47:00,pth,2.40
2023-12-16T13:48:00,pth,1.20
2023-12-16T13:50:00,pth,1.20
2023-12-16T13:52:00,pth,2.40
2023-12-16T13:55:00,pth,4.80
2023-12-16T13:57:00,pth,4.80
2023-12-16T13:59:00,pth,3.60
2023-12-16T14:01:00,pth,3.60
2023-12-16T14:03:00,pth,3.60
2023-12-16T14:05:00,pth,3.60
2023-12-16T14:07:00,pth,3.60
2023-12-16T14:09:00,pth,2.40
2023-12-16T14:11:00,pth,2.40
2023-12-16T14:13:00,pth,1.20
2023-12-16T14:14:00,pth,1.20
2023-12-16T14:16:00,pth,2.40
2023-12-16T14:17:00,pth,1.20
2023-12-16T14:19:00,pth,2.40
2023-12-16T14:20:00,pth,1.20
2023-12-16T14:22:00,pth,1.20
2023-12-16T14:23:00,pth,1.20
2023-12-16T14:24:00,pth,2.40
2023-12-16T14:26:00,pth,12.00
2023-12-16T14:28:00,pth,13.20
2023-12-16T14:30:00,pth,13.20
2023-12-16T14:32:00,pth,12.00
2023-12-16T14:34:00,pth,13.20
2023-12-16T14:35:00,pth,6.00
2023-12-16T14:37:00,pth,13.20
2023-12-16T14:39:00,pth,12.00
2023-12-16T14:40:00,pth,6.00
2023-12-16T14:42:00,pth,13.20
2023-12-16T14:44:00,pth,10.80
2023-12-16T14:46:00,pth,8.40
2023-12-16T14:48:00,pth,13.20
2023-12-16T14:50:00,pth,6.00
2023-12-16T14:52:00,pth,10.80
2023-12-16T14:54:00,pth,7.20
2023-12-16T14:56:00,pth,9.60
2023-12-16T14:58:00,pth,8.40
2023-12-16T14:59:00,pth,6.00
2023-12-16T15:01:00,pth,4.80
2023-12-16T15:03:00,pth,13.20
2023-12-16T15:05:00,pth,4.80
2023-12-16T15:07:00,pth,12.00
2023-12-16T15:08:00,pth,1.20
2023-12-16T15:10:00,pth,12.00
2023-12-16T15:12:00,pth,6.00
2023-12-16T15:13:00,pth,7.20
2023-12-16T15:15:00,pth,10.80
2023-12-16T15:16:00,pth,4.80
2023-12-16T15:18:00,pth,13.20
2023-12-16T15:19:00,pth,1.20
2023-12-16T15:21:00,pth,9.60
2023-12-16T15:22:00,pth,1.20
2023-12-16T15:24:00,pth,2.40
2023-12-16T15:25:00,pth,1.20
2023-12-16T15:27:00,pth,2.40
2023-12-16T15:30:00,pth,2.40
2023-12-16T15:32:00,pth,1.20
2023-12-16T15:33:00,pth,1.20
2023-12-16T15:34:00,pth,1.20
2023-12-16T15:36:00,pth,2.40
2023-12-16T15:38:00,pth,1.20
2023-12-16T15:39:00,pth,1.20
2023-12-16T15:41:00,pth,1.20
2023-12-16T15:42:00,pth,1.20
2023-12-16T15:44:00,pth,1.20
2023-12-16T15:45:00,pth,1.20
2023-12-16T15:47:00,pth,2.40
2023-12-16T15:49:00,pth,1.20
2023-12-16T15:50:00,pth,1.20
2023-12-16T15:52:00,pth,1.20
2023-12-16T15:54:00,pth,1.20
2023-12-16T15:55:00,pth,1.20
2023-12-16T15:56:00,pth,1.20
2023-12-16T15:58:00,pth,1.20
2023-12-16T16:00:00,pth,3.60
2023-12-16T16:01:00,pth,2.40
2023-12-16T16:03:00,pth,2.40
2023-12-16T16:06:00,pth,2.40
2023-12-16T16:09:00,pth,2.40
2023-12-16T16:12:00,pth,2.40
2023-12-16T16:15:00,pth,2.40
2023-12-16T16:16:00,pth,1.20
2023-12-16T16:18:00,pth,2.40
2023-12-16T16:20:00,pth,2.40
2023-12-16T16:21:00,pth,1.20
2023-12-16T16:23:00,pth,2.40
2023-12-16T16:25:00,pth,2.40
2023-12-16T16:26:00,pth,1.20
2023-12-16T16:28:00,pth,1.20
2023-12-16T16:30:00,pth,2.40
2023-12-16T16:32:00,pth,2.40
2023-12-16T16:33:00,pth,1.20
2023-12-16T16:35:00,pth,2.40
2023-12-16T16:37:00,pth,2.40
2023-12-16T16:39:00,pth,2.40
2023-12-16T16:41:00,pth,2.40
2023-12-16T16:43:00,pth,2.40
2023-12-16T16:45:00,pth,1.20
2023-12-16T16:47:00,pth,2.40
2023-12-16T16:48:00,pth,1.20
2023-12-16T16:50:00,pth,2.40
2023-12-16T16:52:00,pth,2.40
2023-12-16T16:54:00,pth,1.20
2023-12-16T16:55:00,pth,1.20
2023-12-16T16:57:00,pth,2.40
2023-12-16T16:59:00,pth,1.20
2023-12-16T17:00:00,pth,1.20
2023-12-16T17:01:00,pth,1.20
2023-12-16T17:04:00,pth,2.40
2023-12-16T17:05:00,pth,1.20
2023-12-16T17:07:00,pth,2.40
2023-12-16T17:09:00,pth,2.40
2023-12-16T17:11:00,pth,2.40
2023-12-16T17:13:00,pth,1.20
2023-12-16T17:15:00,pth,2.40
2023-12-16T17:17:00,pth,2.40
2023-12-16T17:19:00,pth,2.40
2023-12-16T17:20:00,pth,1.20
2023-12-16T17:21:00,pth,1.20
2023-12-16T17:22:00,pth,1.20
2023-12-16T17:24:00,pth,2.40
2023-12-16T17:26:00,pth,2.40
2023-12-16T17:27:00,pth,1.20
2023-12-16T17:30:00,pth,2.40
2023-12-16T17:31:00,pth,1.20
2023-12-16T17:33:00,pth,2.40
2023-12-16T17:35:00,pth,2.40
2023-12-16T17:36:00,pth,1.20
2023-12-16T17:37:00,pth,1.20
2023-12-16T17:39:00,pth,1.20
2023-12-16T17:41:00,pth,1.20
2023-12-16T17:42:00,pth,2.40
2023-12-16T17:44:00,pth,3.60
2023-12-16T17:45:00,pth,1.20
2023-12-16T17:47:00,pth,2.40
2023-12-16T17:49:00,pth,2.40
2023-12-16T17:51:00,pth,2.40
2023-12-16T17:53:00,pth,2.40
2023-12-16T17:55:00,pth,2.40
2023-12-16T17:57:00,pth,2.40
2023-12-16T17:59:00,pth,2.40
2023-12-16T18:01:00,pth,2.40
2023-12-16T18:03:00,pth,2.40
2023-12-16T18:05:00,pth,2.40
2023-12-16T18:06:00,pth,1.20
2023-12-16T18:08:00,pth,3.60
2023-12-16T18:11:00,pth,2.40
2023-12-16T18:13:00,pth,2.40
2023-12-16T18:15:00,pth,2.40
2023-12-16T18:16:00,pth,1.20
2023-12-16T18:18:00,pth,3.60
2023-12-16T18:20:00,pth,2.40
2023-12-16T18:22:00,pth,2.40
2023-12-16T18:24:00,pth,1.20
2023-12-16T18:25:00,pth,1.20
2023-12-16T18:27:00,pth,2.40
2023-12-16T18:29:00,pth,2.40
2023-12-16T18:31:00,pth,1.20
2023-12-16T18:32:00,pth,2.40
2023-12-16T18:34:00,pth,2.40
2023-12-16T18:35:00,pth,1.20
2023-12-16T18:37:00,pth,2.40
2023-12-16T18:39:00,pth,2.40
2023-12-16T18:40:00,pth,1.20
2023-12-16T18:42:00,pth,2.40
2023-12-16T18:43:00,pth,1.20
2023-12-16T18:45:00,pth,1.20
2023-12-16T18:47:00,pth,2.40
2023-12-16T18:49:00,pth,2.40
2023-12-16T18:50:00,pth,1.20
2023-12-16T18:52:00,pth,2.40
2023-12-16T18:54:00,pth,2.40
2023-12-16T18:56:00,pth,2.40
2023-12-16T18:58:00,pth,2.40
2023-12-16T19:00:00,pth,2.40
2023-12-16T19:02:00,pth,1.20
2023-12-16T19:03:00,pth,1.20
2023-12-16T19:05:00,pth,2.40
2023-12-16T19:06:00,pth,1.20
2023-12-16T19:07:00,pth,1.20
2023-12-16T19:09:00,pth,2.40
2023-12-16T19:10:00,pth,1.20
2023-12-16T19:12:00,pth,2.40
2023-12-16T19:13:00,pth,1.20
2023-12-16T19:14:00,pth,1.20
2023-12-16T19:16:00,pth,3.60
2023-12-16T19:18:00,pth,2.40
2023-12-16T19:21:00,pth,2.40
2023-12-16T19:22:00,pth,3.60
2023-12-16T19:24:00,pth,2.40
2023-12-16T19:25:00,pth,1.20
2023-12-16T19:28:00,pth,3.60
2023-12-16T19:30:00,pth,2.40
2023-12-16T19:32:00,pth,2.40
2023-12-16T19:34:00,pth,2.40
2023-12-16T19:36:00,pth,2.40
2023-12-16T19:38:00,pth,2.40
2023-12-16T19:39:00,pth,1.20
2023-12-16T19:41:00,pth,2.40
2023-12-16T19:43:00,pth,1.20
2023-12-16T19:45:00,pth,2.40
2023-12-16T19:47:00,pth,2.40
2023-12-16T19:48:00,pth,1.20
2023-12-16T19:50:00,pth,3.60
2023-12-16T19:52:00,pth,2.40
2023-12-16T19:54:00,pth,2.40
2023-12-16T19:55:00,pth,2.40
2023-12-16T19:57:00,pth,1.20
2023-12-16T19:59:00,pth,2.40
2023-12-16T20:00:00,pth,1.20
2023-12-16T20:02:00,pth,2.40
2023-12-16T20:03:00,pth,1.20
2023-12-16T20:05:00,pth,2.40
2023-12-16T20:07:00,pth,2.40
2023-12-16T20:08:00,pth,1.20
2023-12-16T20:09:00,pth,1.20
2023-12-16T20:11:00,pth,2.40
2023-12-16T20:13:00,pth,2.40
2023-12-16T20:15:00,pth,2.40
2023-12-16T20:17:00,pth,2.40
2023-12-16T20:18:00,pth,1.20
2023-12-16T20:20:00,pth,2.40
2023-12-16T20:21:00,pth,1.20
2023-12-16T20:23:00,pth,3.60
2023-12-16T20:24:00,pth,1.20
2023-12-16T20:26:00,pth,3.60
2023-12-16T20:28:00,pth,2.40
2023-12-16T20:29:00,pth,1.20
2023-12-16T20:31:00,pth,2.40
2023-12-16T20:33:00,pth,2.40
2023-12-16T20:34:00,pth,1.20
2023-12-16T20:36:00,pth,2.40
2023-12-16T20:37:00,pth,1.20
2023-12-16T20:39:00,pth,2.40
2023-12-16T20:40:00,pth,1.20
2023-12-16T20:42:00,pth,3.60
2023-12-16T20:45:00,pth,3.60
2023-12-16T20:47:00,pth,2.40
2023-12-16T20:49:00,pth,2.40
2023-12-16T20:51:00,pth,2.40
2023-12-16T20:53:00,pth,2.40
2023-12-16T20:54:00,pth,1.20
2023-12-16T20:56:00,pth,2.40
2023-12-16T20:58:00,pth,2.40
2023-12-16T21:00:00,pth,2.40
2023-12-16T21:02:00,pth,2.40
2023-12-16T21:03:00,pth,1.20
2023-12-16T21:05:00,pth,2.40
2023-12-16T21:07:00,pth,1.20
2023-12-16T21:09:00,pth,2.40
2023-12-16T21:10:00,pth,1.20
2023-12-16T21:12:00,pth,2.40
2023-12-16T21:14:00,pth,2.40
2023-12-16T21:15:00,pth,1.20
2023-12-16T21:17:00,pth,2.40
2023-12-16T21:19:00,pth,2.40
2023-12-16T21:21:00,pth,2.40
2023-12-16T21:23:00,pth,2.40
2023-12-16T21:24:00,pth,1.20
2023-12-16T21:26:00,pth,2.40
2023-12-16T21:28:00,pth,2.40
2023-12-16T21:30:00,pth,2.40
2023-12-16T21:32:00,pth,3.60
2023-12-16T21:34:00,pth,2.40
2023-12-16T21:35:00,pth,1.20
2023-12-16T21:36:00,pth,1.20
2023-12-16T21:38:00,pth,2.40
2023-12-16T21:40:00,pth,3.60
2023-12-16T21:42:00,pth,2.40
2023-12-16T21:43:00,pth,2.40
2023-12-16T21:45:00,pth,2.40
2023-12-16T21:47:00,pth,3.60
2023-12-16T21:48:00,pth,1.20
2023-12-16T21:50:00,pth,2.40
2023-12-16T21:51:00,pth,1.20
2023-12-16T21:53:00,pth,6.00
2023-12-16T21:55:00,pth,6.00
2023-12-16T21:56:00,pth,1.20
2023-12-16T21:58:00,pth,3.60
2023-12-16T21:59:00,pth,1.20
2023-12-16T22:01:00,pth,3.60
2023-12-16T22:02:00,pth,1.20
2023-12-16T22:04:00,pth,3.60
2023-12-16T22:06:00,pth,3.60
2023-12-16T22:08:00,pth,2.40
2023-12-16T22:10:00,pth,2.40
2023-12-16T22:12:00,pth,3.60
2023-12-16T22:14:00,pth,3.60
2023-12-16T22:15:00,pth,1.20
2023-12-16T22:17:00,pth,3.60
2023-12-16T22:19:00,pth,3.60
2023-12-16T22:21:00,pth,14.40
2023-12-16T22:23:00,pth,13.20
2023-12-16T22:26:00,pth,21.60
2023-12-16T22:28:00,pth,14.40
2023-12-16T22:30:00,pth,13.20
2023-12-16T22:32:00,pth,7.20
2023-12-16T22:33:00,pth,13.20
2023-12-16T22:34:00,pth,7.20
2023-12-16T22:35:00,pth,7.20
2023-12-16T22:38:00,pth,13.20
2023-12-16T22:39:00,pth,14.40
2023-12-16T22:41:00,pth,13.20
2023-12-16T22:42:00,pth,7.20
2023-12-16T22:44:00,pth,13.20
2023-12-16T22:46:00,pth,13.20
2023-12-16T22:48:00,pth,13.20
2023-12-16T22:49:00,pth,7.20
2023-12-16T22:51:00,pth,13.20
2023-12-16T22:53:00,pth,14.40
2023-12-16T22:55:00,pth,13.20
2023-12-16T22:57:00,pth,13.20
2023-12-16T22:58:00,pth,6.00
2023-12-16T23:00:00,pth,13.20
2023-12-16T23:01:00,pth,7.20
2023-12-16T23:03:00,pth,9.60
2023-12-16T23:04:00,pth,6.00
2023-12-16T23:06:00,pth,13.20
2023-12-16T23:07:00,pth,7.20
2023-12-16T23:09:00,pth,10.80
2023-12-16T23:10:00,pth,7.20
2023-12-16T23:12:00,pth,13.20
2023-12-16T23:14:00,pth,10.80
2023-12-16T23:16:00,pth,12.00
2023-12-16T23:18:00,pth,13.20
2023-12-16T23:19:00,pth,2.40
2023-12-16T23:21:00,pth,2.40
2023-12-16T23:23:00,pth,2.40
2023-12-16T23:25:00,pth,3.60
2023-12-16T23:27:00,pth,2.40
2023-12-16T23:29:00,pth,2.40
2023-12-16T23:30:00,pth,1.20
2023-12-16T23:32:00,pth,1.20
2023-12-16T23:33:00,pth,1.20
2023-12-16T23:35:00,pth,2.40
2023-12-16T23:37:00,pth,2.40
2023-12-16T23:38:00,pth,1.20
2023-12-16T23:40:00,pth,2.40
2023-12-16T23:41:00,pth,1.20
2023-12-16T23:43:00,pth,2.40
2023-12-16T23:44:00,pth,1.20
2023-12-16T23:46:00,pth,2.40
2023-12-16T23:49:00,pth,2.40
2023-12-16T23:50:00,pth,1.20
